Погода в Чезене

Италия     44°08′29″N   12°15′00″E
темп.,
°C
ветер,
м/с
пор.,
м/с
влажн.,
%
обл.,
%
осадки,
мм/ч
давл.,
гПа
погр.,
м
21 апреля, ср
ср2123:00+10юз33730 0.0 101651
02:00+8юз23770 0.0 101745
05:00+7зюз22760 0.0 101730
08:00+10юз22694 0.0 1018113
11:00+16в114722 0.0 1018821
14:00+18в4441100 0.0 10181604
17:00+16вюв545264 0.0 1017656
20:00+13вюв357398 0.0 1017105
22 апреля, чт
чт2223:00+11юз2371100 0.0 101840
02:00+11зюз2269100 0.0 101828
05:00+10з3578100 0.0 1018119
08:00+11зсз4779100 0.0 1019325
11:00+15сз346499 0.0 1019870
14:00+17всв335511 1.1 10181319
17:00+17в43521 0.4 10171005
20:00+12вюв34730 0.4 101897
23 апреля, пт
пт2323:00+11юв34880 0.0 101993
02:00+10ююв23893 0.0 101957
05:00+9вюв23900 0.0 102065
08:00+12вюв358526 0.0 1022344
11:00+15всв45627 0.1 1022974
14:00+16всв55494 0.1 1022945
17:00+15в34420 0.0 1021743
20:00+12вюв11540 0.0 102214
24 апреля, сб
сб2423:00+10з11590 0.0 102312
02:00+8зюз22650 0.0 102329
05:00+8зюз22660 0.0 102233
08:00+10з23630 0.0 1023119
11:00+16с23550 0.0 1023790
14:00+18всв44440 0.0 1022997
17:00+17в34410 0.0 1020659
20:00+13вюв23590 0.0 102043
25 апреля, вс
вс2523:00+10ююз22680 0.0 102116
02:00+9ююз22715 0.0 102017
05:00+9ю226534 0.0 102015
08:00+12ююз11545 0.0 102069
11:00+17в23428 0.0 1021664
14:00+19в434155 0.0 1021960
17:00+17в4447100 0.0 1020608
20:00+13вюв2360100 0.0 102052